Simultaneous Nadir Overpasses (SNOs) Predictions

Prediction of SNOs between GOES-15 and NPP Satellite Orbit:

Table of predicted SNOs for the next 14.0 days since TLE Epoch: 4/3/2016
Index Date Time (GOES-15) GOES-15 Lat,Lon NPP Lat,Lon Distance(km) Time Diff (sec)
1 04/03/2016 10:12:53 0.04,-135.21 -0.67,-132.09 355.73 80
2 04/04/2016 22:34:49 -0.05,-135.24 -0.55,-137.39 245.29 80
3 04/05/2016 22:18:46 -0.04,-135.27 0.51,-132.87 273.01 80
4 04/07/2016 10:40:34 0.05,-135.29 0.68,-138.15 325.29 80
5 04/08/2016 10:19:10 0.04,-135.30 -0.32,-133.61 192.28 80
6 04/09/2016 22:41:07 -0.05,-135.33 -0.83,-138.93 410.37 80
7 04/10/2016 22:25:02 -0.05,-135.34 0.17,-134.40 107.11 80
8 04/12/2016 10:46:51 0.05,-135.36 1.02,-139.67 491.91 80
9 04/13/2016 10:25:26
